TimeCST,TemperatureF,Dew PointF,Humidity,Sea Level PressureIn,VisibilityMPH,Wind Direction,Wind SpeedMPH,Gust SpeedMPH,PrecipitationIn,Events,Conditions,WindDirDegrees,DateUTC
12:15 AM,19.4,14.0,80,30.34,10.0,North,8.1,-,N/A,,Overcast,350,2014-02-10 06:15:00
12:35 AM,19.4,14.0,80,30.33,10.0,North,10.4,-,N/A,,Overcast,350,2014-02-10 06:35:00
12:55 AM,17.6,14.0,86,30.33,10.0,NNW,9.2,-,N/A,,Overcast,340,2014-02-10 06:55:00
1:15 AM,17.6,14.0,86,30.33,10.0,North,8.1,-,N/A,,Overcast,350,2014-02-10 07:15:00
1:35 AM,17.6,14.0,86,30.34,10.0,NNW,6.9,-,N/A,,Overcast,340,2014-02-10 07:35:00
1:55 AM,17.6,12.2,79,30.34,10.0,North,5.8,-,N/A,,Overcast,350,2014-02-10 07:55:00
2:15 AM,17.6,12.2,79,30.34,10.0,North,5.8,-,N/A,,Overcast,350,2014-02-10 08:15:00
2:35 AM,17.6,12.2,79,30.36,10.0,North,6.9,-,N/A,,Overcast,360,2014-02-10 08:35:00
2:55 AM,17.6,12.2,79,30.36,10.0,North,5.8,-,N/A,,Overcast,360,2014-02-10 08:55:00
3:15 AM,17.6,8.6,68,30.36,10.0,North,10.4,-,N/A,,Overcast,350,2014-02-10 09:15:00
3:35 AM,15.8,5.0,62,30.37,10.0,North,6.9,-,N/A,,Overcast,10,2014-02-10 09:35:00
3:55 AM,15.8,6.8,68,30.37,10.0,North,5.8,-,N/A,,Overcast,10,2014-02-10 09:55:00
4:15 AM,15.8,6.8,68,30.37,7.0,North,8.1,-,N/A,Snow,Light Snow,350,2014-02-10 10:15:00
4:35 AM,14.0,8.6,79,30.37,5.0,NNW,5.8,-,N/A,Snow,Light Snow,340,2014-02-10 10:35:00
4:55 AM,14.0,8.6,79,30.39,5.0,NNW,8.1,-,N/A,Snow,Light Snow,340,2014-02-10 10:55:00
5:15 AM,14.0,10.4,86,30.39,5.0,North,6.9,-,N/A,Snow,Light Snow,360,2014-02-10 11:15:00
5:35 AM,14.0,8.6,79,30.39,5.0,North,6.9,-,N/A,Snow,Light Snow,360,2014-02-10 11:35:00
5:55 AM,14.0,8.6,79,30.39,7.0,North,5.8,-,N/A,Snow,Light Snow,360,2014-02-10 11:55:00
6:15 AM,14.0,5.0,67,30.40,10.0,North,10.4,-,N/A,,Overcast,350,2014-02-10 12:15:00
6:35 AM,12.2,3.2,67,30.40,10.0,North,9.2,-,N/A,,Overcast,350,2014-02-10 12:35:00
6:55 AM,12.2,1.4,62,30.41,10.0,North,6.9,-,N/A,,Overcast,360,2014-02-10 12:55:00
7:15 AM,12.2,3.2,67,30.42,10.0,NNW,8.1,-,N/A,,Scattered Clouds,340,2014-02-10 13:15:00
7:35 AM,12.2,1.4,62,30.43,10.0,North,5.8,-,N/A,,Scattered Clouds,10,2014-02-10 13:35:00
7:55 AM,10.4,1.4,67,30.44,10.0,North,6.9,-,N/A,,Mostly Cloudy,10,2014-02-10 13:55:00
8:15 AM,12.2,1.4,62,30.43,10.0,North,5.8,-,N/A,,Overcast,350,2014-02-10 14:15:00
8:35 AM,10.4,-0.4,62,30.43,10.0,North,5.8,-,N/A,,Scattered Clouds,350,2014-02-10 14:35:00
8:55 AM,10.4,1.4,67,30.43,10.0,North,9.2,-,N/A,,Clear,350,2014-02-10 14:55:00
9:15 AM,12.2,1.4,62,30.43,10.0,North,6.9,-,N/A,,Clear,10,2014-02-10 15:15:00
9:35 AM,12.2,-0.4,57,30.44,10.0,NNE,5.8,-,N/A,,Clear,30,2014-02-10 15:35:00
9:55 AM,12.2,1.4,62,30.44,10.0,North,6.9,-,N/A,,Clear,10,2014-02-10 15:55:00
10:15 AM,14.0,1.4,57,30.45,10.0,North,5.8,-,N/A,,Clear,10,2014-02-10 16:15:00
10:35 AM,14.0,1.4,57,30.45,10.0,NNE,4.6,-,N/A,,Clear,30,2014-02-10 16:35:00
10:55 AM,15.8,3.2,58,30.44,10.0,North,5.8,-,N/A,,Clear,350,2014-02-10 16:55:00
11:15 AM,15.8,3.2,58,30.44,10.0,NNE,4.6,-,N/A,,Clear,20,2014-02-10 17:15:00
11:35 AM,17.6,3.2,53,30.43,10.0,North,6.9,-,N/A,,Clear,350,2014-02-10 17:35:00
11:55 AM,17.6,3.2,53,30.42,10.0,NNE,4.6,-,N/A,,Clear,30,2014-02-10 17:55:00
12:15 PM,19.4,5.0,54,30.42,10.0,NW,8.1,-,N/A,,Clear,320,2014-02-10 18:15:00
12:35 PM,19.4,3.2,49,30.42,10.0,NNW,3.5,-,N/A,,Clear,340,2014-02-10 18:35:00
12:55 PM,19.4,3.2,49,30.41,10.0,North,3.5,-,N/A,,Clear,10,2014-02-10 18:55:00
1:15 PM,19.4,5.0,54,30.40,10.0,North,4.6,-,N/A,,Mostly Cloudy,360,2014-02-10 19:15:00
1:35 PM,19.4,5.0,54,30.40,10.0,NNW,5.8,-,N/A,,Overcast,340,2014-02-10 19:35:00
1:55 PM,21.2,5.0,50,30.38,10.0,North,8.1,-,N/A,,Mostly Cloudy,360,2014-02-10 19:55:00
2:15 PM,19.4,5.0,54,30.37,10.0,North,6.9,-,N/A,,Overcast,350,2014-02-10 20:15:00
2:35 PM,19.4,5.0,54,30.36,10.0,NNE,3.5,-,N/A,,Overcast,20,2014-02-10 20:35:00
2:55 PM,19.4,5.0,54,30.36,10.0,North,4.6,-,N/A,,Overcast,10,2014-02-10 20:55:00
3:15 PM,19.4,5.0,54,30.36,10.0,North,6.9,-,N/A,,Overcast,360,2014-02-10 21:15:00
3:35 PM,21.2,5.0,50,30.36,10.0,North,5.8,-,N/A,,Scattered Clouds,350,2014-02-10 21:35:00
3:55 PM,21.2,5.0,50,30.37,10.0,NNW,6.9,-,N/A,,Clear,340,2014-02-10 21:55:00
4:15 PM,19.4,5.0,54,30.38,10.0,NW,5.8,-,N/A,,Clear,320,2014-02-10 22:15:00
4:35 PM,19.4,5.0,54,30.38,10.0,North,6.9,-,N/A,,Clear,360,2014-02-10 22:35:00
4:55 PM,19.4,5.0,54,30.38,10.0,North,5.8,-,N/A,,Clear,350,2014-02-10 22:55:00
5:15 PM,19.4,5.0,54,30.39,10.0,NNW,8.1,-,N/A,,Clear,340,2014-02-10 23:15:00
5:35 PM,17.6,5.0,58,30.39,10.0,NNW,8.1,-,N/A,,Clear,330,2014-02-10 23:35:00
5:55 PM,17.6,5.0,58,30.40,10.0,NNW,4.6,-,N/A,,Clear,340,2014-02-10 23:55:00
6:15 PM,17.6,5.0,58,30.39,10.0,North,5.8,-,N/A,,Clear,350,2014-02-11 00:15:00
6:35 PM,15.8,5.0,62,30.41,10.0,NNW,5.8,-,N/A,,Clear,340,2014-02-11 00:35:00
6:55 PM,15.8,5.0,62,30.42,10.0,NNW,6.9,-,N/A,,Clear,340,2014-02-11 00:55:00
7:15 PM,15.8,5.0,62,30.43,10.0,NW,4.6,-,N/A,,Clear,320,2014-02-11 01:15:00
7:35 PM,15.8,5.0,62,30.43,10.0,NNW,6.9,-,N/A,,Clear,340,2014-02-11 01:35:00
7:55 PM,14.0,5.0,67,30.42,10.0,North,3.5,-,N/A,,Clear,350,2014-02-11 01:55:00
8:15 PM,14.0,3.2,62,30.43,10.0,NNW,5.8,-,N/A,,Clear,340,2014-02-11 02:15:00
8:35 PM,14.0,3.2,62,30.42,10.0,North,8.1,-,N/A,,Clear,350,2014-02-11 02:35:00
8:55 PM,14.0,3.2,62,30.42,10.0,North,6.9,-,N/A,,Clear,350,2014-02-11 02:55:00
9:15 PM,14.0,3.2,62,30.42,10.0,North,9.2,-,N/A,,Clear,350,2014-02-11 03:15:00
9:35 PM,12.2,3.2,67,30.43,10.0,North,5.8,-,N/A,,Clear,350,2014-02-11 03:35:00
9:55 PM,12.2,3.2,67,30.42,10.0,North,6.9,-,N/A,,Clear,360,2014-02-11 03:55:00
10:15 PM,12.2,1.4,62,30.42,10.0,North,8.1,-,N/A,,Clear,360,2014-02-11 04:15:00
10:35 PM,12.2,1.4,62,30.42,10.0,North,5.8,-,N/A,,Clear,10,2014-02-11 04:35:00
10:55 PM,12.2,1.4,62,30.43,10.0,North,4.6,-,N/A,,Clear,360,2014-02-11 04:55:00
11:15 PM,12.2,1.4,62,30.43,10.0,North,4.6,-,N/A,,Clear,360,2014-02-11 05:15:00
11:35 PM,10.4,1.4,67,30.43,10.0,North,3.5,-,N/A,,Clear,10,2014-02-11 05:35:00
11:55 PM,10.4,1.4,67,30.42,10.0,NNE,4.6,-,N/A,,Clear,20,2014-02-11 05:55:00